Location: Hlohovi?ky
(49.8934°N, 13.6739°E)
Time: 09:45:43
(UTC+00:00)

Cosmos 1328 Rocket - Pass Details

Date: 19 May 2025
Orbit: 596 x 618 km, 82.5° (Epoch: 23 June)

Event Time Altitude Azimuth Distance (km) Brightness Sun altitude
Exits shadow 23:23:16 49° 157° (SSE) 784 3.7 -20.0°
Maximum altitude 23:24:16 67° 97° (E) 656 3.6 -19.9°
Drops below altitude 10° 23:28:34 10° 15° (NNE) 1,962 7.3 -19.9°
Sets 23:30:49 0° 13° (NNE) 2,875 8.6 -19.8°
